LEMUR-2-DAYWZAGOODDAY (46501 NORAD) Tracking and Keplerian Element Data

This shows tracking and keplerian element data for the satellite.

Feedback or suggestion? Click here.




ElementValue
Catalog46501
NameLEMUR-2-DAYWZAGOODDAY
Epoch Orbit958
Epoch Day336.8930612
Epoch Year2020
RAAN269.6769
Inclination97.6746
Eccentricity0.0013494
Argument of Perigee42.5255
Mean Anonmoly317.7014
Mean Motion15.02296802
Decay Rate3.074E-05
L11 46501U 20068R 20336.89306120 .00003074 00000-0 23695-3 0 9997
L22 46501 97.6746 269.6769 0013494 42.5255 317.7014 15.02296802 9586

Live tracking and technical data element details for LEMUR-2-DAYWZAGOODDAY (NORAD 46501). LEMUR-2-DAYWZAGOODDAY can be tracked NOW for your location showing map with azimuth and elevation plus other details from your city location.

Track the satellite on the map from your city or location and see movement details for azimuth, elevation, latitude, longitude, range, height, and movement on the map or in text.







IsCatalogInMostPopularTable: catalog: 46501, numindb: 20
Update: records affected: 1



GetName: 46501 LEMUR-2-DAYWZAGOODDAY

Hit Count: updated at: Wed, 02 Dec 2020 18:15:02 GMT